This demonstration page uses our WeatherBlox Daily Observations layout. Learn more.

Left ArrowRight Arrow

39.12711, -84.51439

Hourly Observations for October 7, 2021

Temp ( °F °C ) Dew Point ( °F °C ) Humidity (%) Winds ( mph kmh ) Pressure ( in mb ) Visibility ( mi km ) Precip ( " mm )
12:09 am 00:09 Cloudy with Nearby Thunderstorms 65 18.3 65 18.3 100 100 SE 6 9 30.18 1022 2 2 0.16 4.06
12:19 am 00:19 Cloudy with Strong Thunderstorms 65 18.3 65 18.3 100 100 WSW 3 6 30.17 1022 2 2 0.27 6.86
12:29 am 00:29 Cloudy with Thunderstorms 65 18.3 65 18.3 100 100 VRB 3 6 30.17 1022 3 5 0.30 7.62
12:37 am 00:37 Cloudy with Nearby Thunderstorms 65 18.3 65 18.3 100 100 N 6 9 30.16 1021 8 13 0.31 7.87
12:53 am 00:53 Cloudy 66 18.9 65 18.3 96 96 N 3 6 30.16 1021 10 16 0.31 7.87
1:33 am 01:33 Cloudy with Nearby Thunderstorms 65 18.3 65 18.3 100 100 S 3 6 30.16 1021 10 16 0.00 0.00
1:48 am 01:48 Cloudy with Light Rain 64 18 64 18 100 100 Calm 30.15 1021 6 10 0.02 0.51
1:53 am 01:53 Cloudy with Rain 66 18.9 66 18.9 100 100 Calm 30.15 1021 5 8 0.02 0.51
2:53 am 02:53 Cloudy with Light Rain 66 18.9 65 18.3 96 96 S 3 6 30.16 1021 10 16 0.03 0.76
3:53 am 03:53 Cloudy with Light Rain 65 18.3 65 18.3 100 100 NE 5 7 30.14 1021 10 16 0.08 2.03
4:53 am 04:53 Mostly Cloudy with Light Rain 65 18.3 64 17.8 97 97 ENE 3 6 30.12 1020 10 16 0.00 0.00
5:26 am 05:26 Mostly Cloudy 64 17.8 64 17.8 100 100 WSW 6 9 30.14 1021 10 16 0.00 0.00
5:34 am 05:34 Cloudy 64 17.8 64 17.8 100 100 WSW 7 11 30.15 1021 10 16 0.00 0.00
5:53 am 05:53 Cloudy 65 18.3 64 17.8 97 97 Calm 30.14 1021 10 16 0.01 0.25
6:00 am 06:00 Mostly Cloudy 65 18.3 64 17.8 97 97 Calm 30.15 1021 10 16 0.00 0.00
6:13 am 06:13 Cloudy 64 17.8 64 17.8 100 100 S 3 6 30.16 1021 10 16 0.00 0.00
6:46 am 06:46 Mostly Cloudy with Mist and Fog 63 17.2 63 17.2 100 100 Calm 30.16 1021 2 3 0.00 0.00
6:53 am 06:53 Cloudy 63 17.2 63 17.2 100 100 Calm 30.16 1021 8 13 0.00 0.00
7:53 am 07:53 Mostly Cloudy 65 18.3 65 18.3 100 100 Calm 30.16 1021 10 16 0.00 0.00
8:53 am 08:53 Mostly Cloudy 66 18.9 65 18.3 96 96 Calm 30.17 1022 10 16 0.00 0.00
9:34 am 09:34 Cloudy 66 18.9 65 18.3 96 96 Calm 30.18 1022 10 16 0.00 0.00
9:53 am 09:53 Cloudy 67 19.4 65 18.3 93 93 Calm 30.18 1022 10 16 0.00 0.00
10:53 am 10:53 Cloudy 68 20 65 18.3 90 90 SSE 5 7 30.18 1022 10 16 0.00 0.00
11:04 am 11:04 Cloudy 68 20 65 18.3 90 90 SSE 3 6 30.18 1022 10 16 0.00 0.00
11:24 am 11:24 Cloudy 69 20.6 66 18.9 90 90 SSE 5 7 30.18 1022 10 16 0.00 0.00
11:53 am 11:53 Cloudy 69 20.6 66 18.9 90 90 S 3 6 30.18 1022 10 16 0.00 0.00
12:53 pm 12:53 Mostly Cloudy 72 22.2 66 18.9 82 82 SSW 3 6 30.17 1022 10 16 0.00 0.00
1:53 pm 13:53 Mostly Sunny 75 23.9 66 18.9 74 74 WNW 6 9 30.14 1021 10 16 0.00 0.00
2:53 pm 14:53 Mostly Sunny 77 25 65 18.3 66 66 VRB 3 6 30.10 1019 10 16 0.00 0.00
3:53 pm 15:53 Cloudy 79 26.1 66 18.9 65 65 S 3 6 30.09 1019 10 16 0.00 0.00
4:53 pm 16:53 Cloudy 80 26.7 66 18.9 62 62 Calm 30.06 1018 10 16 0.00 0.00
5:53 pm 17:53 Mostly Cloudy 77 25 65 18.3 66 66 Calm 30.05 1018 10 16 0.00 0.00
6:53 pm 18:53 Partly Cloudy 73 22.8 67 19.4 81 81 E 9 15 30.06 1018 10 16 0.00 0.00
7:53 pm 19:53 Cloudy 71 21.7 68 20 90 90 NNW 3 6 30.06 1018 10 16 0.00 0.00
8:46 pm 20:46 Cloudy with Nearby Thunderstorms 71 21.7 68 20 90 90 Calm 30.07 1018 10 16 0.00 0.00
8:53 pm 20:53 Cloudy with Nearby Thunderstorms 71 21.7 68 20 90 90 N 3 6 30.07 1018 10 16 0.00 0.00
9:01 pm 21:01 Cloudy 71 21.7 69 20.6 94 94 NE 3 6 30.07 1018 10 16 0.00 0.00
9:53 pm 21:53 Cloudy with Heavy Rain 69 20.6 69 20.6 100 100 Calm 30.07 1018 3 5 0.14 3.56
10:53 pm 22:53 Cloudy 69 20.6 69 20.6 100 100 N 3 6 30.06 1018 10 16 0.00 0.00
11:38 pm 23:38 Mostly Cloudy with Mist and Fog 67 19.4 67 19.4 100 100 Calm 30.08 1019 2 2 0.00 0.00
11:48 pm 23:48 Mostly Cloudy with Mist and Fog 66 19 66 19 100 100 W 3 6 30.08 1019 1 1 0.00 0.00
11:53 pm 23:53 Mostly Cloudy with Mist and Fog 68 20 68 20 100 100 NW 3 6 30.08 1019 2 3 0.00 0.00

Powered by AerisWeather